Temp
63 63 63 63 61 61 61 61 61 61 61 61 61 61 61 61 61 61 61 61 60 60 60 60 60 61 54 50 61 76 79 78 73 72 72 70 67 65 62 65 69 64 71 74 73 74 72
63 63 63 62 62 61 61 61 61 61 60 61 61 60 60 61 61 61 61 60 60 59 60 60 60 61 52 51 75 74 73 71 70 69 69 71 69 71 67 66 66 70 70 72 72 70 71
62 63 63 62 62 61 61 61 60 60 60 60 60 60 60 60 60 60 60 60 59 60 60 60 61 60 54 62 75 72 71 67 70 70 67 70 74 70 67 64 71 70 63 69 69 68 65
62 62 62 62 62 61 61 60 60 59 59 59 60 60 60 59 59 59 59 58 58 59 61 61 61 54 51 71 71 73 70 69 72 68 69 74 77 70 65 69 70 63 61 58 66 66 67
62 61 61 61 61 61 61 60 60 60 59 59 59 59 59 59 58 57 57 57 59 61 62 62 51 48 54 73 70 73 72 71 69 65 69 84 74 64 67 60 55 56 50 55 61 68 66
62 61 61 61 61 61 61 60 59 59 59 58 59 59 58 58 57 56 56 57 61 61 61 62 62 51 62 66 71 73 72 74 69 69 68 67 62 57 56 54 48 52 51 52 57 63 65
62 62 62 61 61 60 61 60 59 59 59 59 58 58 58 58 57 56 52 52 53 52 52 58 57 61 68 72 74 72 75 70 67 63 57 60 55 52 57 59 60 59 56 55 61 67 63
62 61 61 61 61 61 60 60 59 58 58 58 58 58 58 57 56 56 50 53 60 61 54 60 63 64 69 68 66 70 76 66 62 57 60 56 51 60 65 63 61 58 56 53 61 64 62
61 61 61 61 60 60 60 59 59 58 58 58 57 57 57 56 55 50 50 59 64 60 50 61 61 63 66 69 66 68 72 67 61 57 57 53 58 66 65 61 60 54 53 53 57 61 63
61 60 60 60 60 60 59 60 59 58 58 57 57 57 56 55 51 54 56 61 62 62 46 56 59 68 69 70 65 76 74 70 62 58 59 56 64 65 60 59 60 47 64 63 59 55 49
60 60 60 60 60 59 59 59 58 58 57 57 57 56 56 54 50 58 67 60 57 60 37 62 61 74 65 67 68 67 75 70 61 61 59 56 58 58 57 61 64 59 67 62 61 52 50
60 60 60 60 60 59 58 58 58 57 57 57 57 56 56 51 49 59 63 59 62 48 40 58 65 62 63 63 65 69 69 71 69 62 59 60 66 65 63 66 67 67 61 56 52 50 43
60 60 60 59 59 58 59 58 57 57 56 56 55 54 53 57 61 62 62 63 48 41 58 57 55 59 59 57 61 64 62 57 54 48 46 57 60 63 67 58 60 58 51 42 40 42 42
60 60 59 59 59 58 59 58 57 57 56 55 53 52 52 55 56 64 64 57 40 52 51 60 58 57 54 58 56 58 56 53 56 53 46 47 47 59 65 62 57 54 53 44 38 38 43
60 60 60 59 59 58 58 58 57 56 56 54 52 49 49 56 58 61 60 44 46 50 57 58 55 51 50 56 56 56 51 53 56 54 49 45 49 63 66 65 64 55 51 55 46 42 43
60 60 60 59 58 58 58 58 57 56 56 54 47 51 56 61 60 62 55 45 50 58 60 58 49 52 45 49 51 51 51 56 58 60 53 50 45 54 63 64 62 58 61 50 45 39 38
59 59 59 59 58 58 58 58 57 56 55 53 49 55 63 61 61 59 48 48 56 62 62 58 51 50 47 47 47 46 48 56 60 59 55 50 48 54 56 53 50 55 51 49 49 45 41
59 59 58 58 58 58 58 58 56 55 54 50 47 53 62 63 56 46 48 54 60 61 61 59 58 54 50 50 46 46 50 55 62 59 51 49 46 43 50 57 57 53 49 49 46 43 42
58 58 58 58 58 58 58 57 56 54 54 49 48 49 61 63 49 47 50 59 61 61 58 58 56 56 53 48 45 49 53 62 63 58 53 52 43 41 48 51 55 51 52 45 46 45 43
59 59 59 58 58 59 58 57 56 54 53 49 50 52 55 55 50 51 50 52 56 63 60 58 56 57 53 49 46 47 53 61 62 59 64 57 42 44 40 43 48 49 53 52 47 45 43
59 59 59 58 59 59 58 57 56 55 53 48 50 48 50 49 53 51 52 53 56 53 57 57 55 54 51 43 47 47 53 54 60 61 54 51 43 43 48 52 53 52 53 53 49 48 49
58 58 58 59 58 58 58 58 57 56 53 50 50 50 49 48 48 49 47 48 54 52 53 52 52 54 52 46 45 45 48 48 48 55 47 47 43 42 46 55 55 52 53 54 53 51 50
58 58 58 58 58 58 58 58 57 56 53 51 51 51 52 48 48 49 47 50 55 54 57 58 55 52 51 52 54 51 50 49 48 51 50 48 48 43 38 49 55 49 50 51 52 54 53
58 58 58 58 59 58 59 58 58 57 53 47 50 49 50 47 51 51 56 58 56 54 54 55 55 50 54 57 54 50 51 51 54 50 51 48 43 44 38 45 38 50 60 57 52 54 55
57 57 58 58 58 58 59 59 58 57 56 47 49 51 49 46 51 54 55 55 53 53 53 55 58 55 52 51 47 43 44 45 49 47 46 48 43 38 38 38 44 54 56 55 52 51 56
57 57 57 58 58 58 59 59 59 58 56 48 50 51 51 49 50 55 53 51 46 44 49 53 57 54 52 43 42 34 36 39 41 45 44 46 45 44 36 36 35 45 58 62 57 45 56
57 57 57 57 58 58 59 59 59 59 57 50 53 52 52 49 51 50 50 49 49 46 45 45 50 51 48 40 37 32 33 42 32 37 35 37 37 37 36 35 42 52 56 59 46 46 55
56 56 56 57 57 58 59 58 59 59 58 52 55 53 54 50 52 57 58 52 51 47 45 49 48 49 43 39 38 35 34 36 34 38 37 38 34 33 33 34 36 52 55 49 51 52 55
56 56 56 56 57 57 59 58 58 58 58 56 54 55 54 54 55 56 57 57 57 57 50 44 48 45 45 40 38 37 37 36 35 32 40 36 40 38 39 38 47 50 50 52 52 54 54
MSLP
1019.35 1019.02 1018.72 1018.42 1018.18 1017.84 1017.48 1017.11 1016.74 1016.44 1016.10 1015.75 1015.45 1015.15 1014.94 1014.83 1014.65 1014.43 1014.31 1014.07 1014.12 1014.17 1014.17 1013.95 1013.76 1013.61 1013.40 1012.54 1009.75 1007.81 1007.81 1008.56 1009.31 1009.61 1009.85 1010.23 1010.70 1011.00 1010.96 1010.89 1010.82 1010.84 1010.42 1010.61 1010.71 1011.05 1011.88
1019.41 1019.00 1018.67 1018.37 1018.07 1017.81 1017.49 1017.07 1016.67 1016.32 1015.97 1015.64 1015.26 1014.99 1014.76 1014.54 1014.42 1014.35 1014.12 1014.04 1013.89 1013.88 1013.90 1013.84 1013.66 1013.62 1013.02 1011.34 1008.29 1008.00 1008.01 1008.88 1009.48 1009.82 1010.03 1010.01 1010.19 1010.18 1010.45 1010.45 1010.50 1010.27 1010.53 1010.81 1011.11 1011.69 1012.19
1019.49 1019.05 1018.65 1018.28 1017.98 1017.73 1017.44 1017.06 1016.71 1016.29 1015.88 1015.52 1015.17 1014.82 1014.52 1014.36 1014.22 1014.00 1014.02 1013.89 1013.87 1013.63 1013.48 1013.67 1013.55 1013.54 1012.53 1009.52 1008.55 1008.60 1008.54 1008.86 1009.44 1009.65 1010.03 1009.86 1009.73 1010.00 1010.26 1010.19 1010.11 1010.38 1011.03 1011.23 1011.63 1012.10 1012.92
1019.56 1019.15 1018.71 1018.25 1017.87 1017.57 1017.28 1016.89 1016.53 1016.19 1015.84 1015.45 1015.05 1014.71 1014.39 1014.15 1013.88 1013.87 1013.74 1013.60 1013.68 1013.52 1013.29 1013.39 1013.51 1013.37 1011.51 1008.42 1008.56 1008.90 1008.86 1009.32 1009.59 1009.80 1009.76 1009.64 1009.61 1009.98 1010.25 1010.27 1010.35 1010.86 1011.20 1011.57 1011.90 1012.23 1012.99
1019.58 1019.22 1018.74 1018.27 1017.80 1017.41 1017.08 1016.79 1016.40 1016.05 1015.73 1015.43 1015.01 1014.63 1014.33 1013.99 1013.93 1013.66 1013.45 1013.46 1013.22 1013.22 1013.18 1013.12 1013.41 1013.15 1010.33 1008.44 1008.43 1008.54 1008.84 1009.24 1009.81 1010.09 1009.84 1009.66 1009.93 1010.45 1010.44 1010.76 1011.44 1011.81 1011.85 1012.00 1012.21 1012.40 1012.77
1019.52 1019.13 1018.74 1018.25 1017.73 1017.29 1016.93 1016.65 1016.25 1015.89 1015.55 1015.09 1014.79 1014.50 1014.20 1013.91 1013.68 1013.69 1013.28 1012.84 1012.93 1012.92 1013.16 1013.24 1012.93 1012.79 1009.50 1007.93 1007.49 1008.18 1008.78 1009.08 1009.61 1010.14 1010.39 1010.22 1010.71 1011.12 1011.46 1011.40 1011.82 1011.89 1011.89 1012.01 1012.18 1012.48 1012.75
1019.42 1019.04 1018.61 1018.15 1017.65 1017.18 1016.80 1016.48 1016.18 1015.76 1015.34 1015.00 1014.64 1014.27 1014.07 1013.87 1013.62 1013.50 1013.21 1013.27 1013.15 1013.02 1012.62 1011.36 1010.85 1010.20 1008.58 1007.43 1006.98 1007.76 1008.34 1008.99 1009.32 1010.01 1010.51 1010.68 1011.22 1011.26 1011.44 1011.18 1011.19 1011.36 1011.65 1012.03 1012.28 1012.17 1012.72
1019.34 1018.89 1018.43 1017.99 1017.56 1017.11 1016.71 1016.36 1016.02 1015.59 1015.20 1014.85 1014.53 1014.31 1013.99 1013.82 1013.60 1013.53 1013.58 1012.62 1011.15 1011.04 1010.93 1009.83 1009.62 1009.15 1008.18 1007.59 1007.30 1007.53 1007.88 1008.87 1009.20 1009.79 1010.17 1011.00 1011.02 1010.76 1010.78 1010.97 1011.14 1011.42 1011.70 1012.33 1012.65 1012.80 1013.10
1019.28 1018.89 1018.40 1017.87 1017.42 1017.01 1016.59 1016.15 1015.76 1015.33 1014.96 1014.60 1014.15 1013.80 1013.54 1013.36 1013.31 1013.36 1012.90 1011.31 1010.20 1010.45 1010.82 1009.15 1008.67 1008.07 1007.27 1007.44 1007.16 1007.22 1007.51 1008.27 1008.95 1009.51 1010.00 1010.41 1010.39 1010.38 1010.45 1010.84 1011.03 1011.30 1011.69 1012.16 1012.58 1013.22 1013.46
1019.33 1018.86 1018.39 1017.85 1017.39 1016.95 1016.52 1016.03 1015.54 1015.04 1014.47 1014.05 1013.78 1013.32 1013.13 1013.13 1013.68 1012.59 1011.72 1010.06 1010.17 1010.58 1010.57 1008.83 1007.76 1006.49 1006.73 1006.66 1006.87 1006.66 1007.02 1007.66 1008.53 1009.31 1009.85 1010.05 1009.86 1010.01 1010.25 1010.48 1010.84 1011.16 1011.03 1011.84 1012.76 1013.43 1014.21
1019.41 1018.88 1018.39 1017.81 1017.31 1016.84 1016.39 1015.82 1015.25 1014.64 1014.16 1013.77 1013.42 1013.22 1013.02 1012.92 1012.77 1011.77 1010.05 1010.02 1010.20 1010.49 1009.86 1008.09 1006.83 1005.71 1006.26 1006.53 1006.66 1006.88 1006.71 1007.14 1008.29 1009.11 1009.75 1009.96 1009.68 1009.76 1009.93 1009.97 1010.39 1010.76 1010.80 1011.93 1012.96 1013.94 1014.65
1019.46 1018.92 1018.40 1017.85 1017.30 1016.76 1016.29 1015.70 1015.06 1014.52 1013.94 1013.40 1013.22 1012.93 1012.69 1012.75 1012.58 1010.14 1009.52 1009.85 1010.06 1010.58 1009.27 1007.68 1006.51 1006.27 1006.69 1006.75 1006.82 1007.06 1007.12 1007.31 1008.15 1009.16 1009.66 1009.79 1009.35 1009.39 1009.36 1009.31 1009.76 1010.57 1011.37 1012.77 1013.84 1014.74 1015.64
1019.47 1018.94 1018.42 1017.84 1017.27 1016.73 1016.23 1015.61 1014.99 1014.40 1013.76 1012.94 1012.43 1012.53 1012.58 1011.81 1010.67 1009.53 1009.51 1009.74 1010.61 1010.00 1009.03 1008.30 1007.55 1007.09 1007.23 1007.56 1007.50 1007.48 1007.89 1008.42 1009.07 1009.92 1010.46 1010.01 1009.48 1008.91 1008.78 1009.41 1009.95 1010.50 1011.73 1013.65 1015.19 1015.73 1015.58
1019.48 1018.90 1018.39 1017.87 1017.21 1016.63 1016.06 1015.43 1014.81 1014.18 1013.35 1012.46 1011.69 1011.52 1011.20 1010.65 1009.71 1009.58 1009.72 1010.19 1010.46 1009.87 1009.13 1008.54 1008.19 1008.16 1008.54 1008.66 1008.63 1008.62 1008.78 1009.49 1009.57 1010.03 1010.95 1010.57 1009.82 1008.84 1008.37 1008.59 1009.19 1010.37 1011.06 1012.46 1013.91 1015.33 1015.35
1019.44 1018.87 1018.36 1017.80 1017.04 1016.45 1015.91 1015.27 1014.65 1013.92 1013.08 1012.21 1011.14 1011.02 1010.97 1009.33 1009.68 1009.70 1010.05 1010.49 1010.35 1009.85 1009.19 1008.83 1008.81 1009.13 1009.60 1009.46 1009.41 1009.57 1009.86 1009.97 1009.87 1009.99 1010.82 1010.94 1009.94 1008.69 1008.09 1008.07 1008.42 1010.09 1010.81 1011.04 1013.08 1014.47 1015.04
1019.43 1018.89 1018.30 1017.71 1016.99 1016.31 1015.75 1015.13 1014.43 1013.64 1012.76 1012.17 1011.78 1011.14 1010.01 1008.98 1009.46 1009.73 1010.29 1010.56 1010.17 1009.58 1009.03 1008.80 1009.09 1009.59 1010.28 1010.41 1010.28 1010.23 1010.26 1010.07 1009.91 1009.87 1009.96 1010.97 1010.68 1009.43 1008.50 1008.13 1008.48 1008.74 1009.50 1011.19 1012.74 1014.25 1015.21
1019.40 1018.87 1018.30 1017.67 1016.97 1016.26 1015.65 1015.07 1014.46 1013.57 1012.53 1011.82 1011.82 1011.28 1009.72 1009.30 1009.74 1010.23 1010.92 1010.52 1009.72 1008.95 1008.83 1008.94 1009.36 1009.89 1010.43 1010.77 1010.83 1010.84 1010.73 1010.28 1009.92 1010.01 1010.54 1010.72 1011.27 1010.50 1009.54 1009.55 1009.66 1009.54 1009.93 1011.04 1012.29 1013.39 1014.35
1019.33 1018.83 1018.26 1017.66 1016.99 1016.24 1015.62 1015.01 1014.38 1013.57 1012.63 1011.89 1011.96 1011.41 1010.09 1009.79 1010.47 1011.34 1010.98 1010.09 1009.27 1009.02 1008.95 1009.01 1009.38 1009.98 1010.52 1010.84 1011.11 1010.90 1010.52 1010.12 1009.87 1010.05 1010.67 1011.09 1011.99 1012.05 1010.99 1010.25 1010.17 1010.20 1010.54 1011.16 1012.27 1013.81 1014.25
1019.30 1018.77 1018.24 1017.68 1016.98 1016.27 1015.63 1014.96 1014.33 1013.72 1013.19 1013.08 1012.62 1011.93 1010.36 1010.08 1011.03 1011.52 1010.84 1009.95 1009.57 1009.38 1009.49 1009.48 1009.88 1010.16 1010.61 1011.20 1011.42 1011.10 1010.59 1010.04 1009.91 1010.22 1010.65 1011.22 1012.54 1012.80 1011.93 1011.46 1010.89 1011.21 1011.18 1011.40 1012.02 1012.68 1013.65
1019.25 1018.75 1018.25 1017.66 1016.97 1016.29 1015.61 1014.98 1014.35 1013.59 1012.97 1013.09 1012.72 1012.44 1011.76 1011.20 1011.41 1011.22 1010.86 1010.30 1009.97 1009.69 1009.96 1010.09 1010.50 1010.33 1010.92 1011.62 1011.63 1011.42 1010.81 1010.34 1010.20 1010.52 1011.05 1011.55 1013.15 1013.17 1013.23 1012.83 1012.49 1012.20 1011.73 1011.46 1011.83 1012.78 1013.51
1019.20 1018.65 1018.15 1017.62 1017.03 1016.31 1015.64 1015.05 1014.41 1013.59 1013.26 1013.47 1013.02 1013.49 1012.74 1012.29 1011.74 1011.30 1010.82 1010.44 1010.47 1010.52 1010.50 1010.60 1011.08 1011.30 1011.35 1011.94 1011.98 1011.76 1011.31 1010.89 1010.68 1011.15 1011.73 1012.61 1013.70 1013.58 1013.31 1013.02 1012.77 1012.57 1012.32 1011.78 1011.89 1012.18 1012.64
1019.13 1018.60 1018.10 1017.61 1016.99 1016.34 1015.72 1015.11 1014.50 1013.69 1013.20 1013.46 1013.50 1013.29 1012.99 1012.51 1012.15 1011.63 1011.30 1011.25 1010.97 1011.28 1011.31 1011.57 1011.92 1011.97 1011.85 1012.38 1012.58 1012.34 1012.21 1012.12 1011.82 1011.78 1012.56 1013.50 1014.42 1014.30 1014.12 1013.16 1012.85 1012.44 1012.50 1012.06 1012.18 1012.37 1012.55
1019.02 1018.56 1018.07 1017.55 1016.99 1016.45 1015.89 1015.32 1014.68 1013.98 1013.26 1013.80 1013.67 1013.39 1013.15 1013.24 1012.60 1012.01 1012.05 1011.53 1011.58 1011.54 1011.86 1011.87 1011.94 1012.02 1012.33 1012.41 1012.46 1012.50 1012.64 1012.82 1012.98 1013.00 1013.53 1014.29 1014.95 1015.53 1015.08 1014.01 1012.91 1012.63 1012.67 1012.55 1012.52 1012.55 1012.83
1018.80 1018.40 1018.00 1017.52 1017.03 1016.52 1015.94 1015.47 1014.86 1014.35 1014.41 1014.64 1014.12 1013.92 1013.68 1014.19 1013.21 1012.89 1012.28 1011.97 1012.24 1012.17 1012.27 1012.47 1012.32 1012.34 1012.63 1012.40 1012.53 1012.82 1012.95 1013.04 1013.12 1013.87 1014.02 1014.83 1015.56 1016.23 1016.29 1015.05 1014.31 1013.05 1012.24 1012.48 1013.08 1013.01 1013.24
1018.62 1018.23 1017.88 1017.47 1017.02 1016.51 1016.02 1015.50 1014.90 1014.45 1014.19 1014.18 1013.94 1013.86 1013.97 1014.45 1014.07 1013.44 1013.00 1012.89 1012.85 1012.93 1013.10 1013.03 1012.97 1013.17 1013.10 1013.34 1014.18 1014.70 1014.72 1014.38 1014.59 1014.81 1014.84 1014.91 1015.95 1017.12 1017.14 1016.39 1015.10 1013.14 1012.84 1013.07 1013.20 1013.66 1013.46
1018.33 1018.00 1017.61 1017.23 1016.86 1016.50 1016.01 1015.58 1014.99 1014.59 1014.23 1014.02 1013.76 1013.60 1013.72 1014.12 1014.74 1014.05 1013.71 1013.74 1014.19 1014.24 1014.20 1013.75 1013.48 1013.48 1013.84 1015.36 1016.21 1016.86 1016.78 1016.34 1016.02 1015.66 1015.50 1015.86 1016.10 1016.92 1017.84 1017.15 1016.00 1014.59 1013.63 1013.32 1012.81 1013.57 1013.50
1017.95 1017.63 1017.30 1016.97 1016.70 1016.35 1015.93 1015.57 1015.02 1014.57 1014.19 1014.23 1013.82 1013.49 1013.55 1014.62 1014.59 1014.05 1013.98 1014.17 1014.51 1014.83 1015.09 1015.01 1014.88 1014.74 1015.14 1016.81 1017.97 1018.64 1018.33 1017.74 1017.45 1017.08 1017.12 1017.41 1017.98 1018.32 1018.40 1017.66 1016.29 1014.87 1014.20 1013.52 1013.97 1014.55 1014.16
1017.57 1017.27 1016.94 1016.64 1016.42 1016.15 1015.82 1015.56 1015.07 1014.72 1014.27 1014.24 1013.89 1013.59 1013.55 1014.66 1014.77 1014.24 1013.95 1014.17 1014.59 1015.02 1015.50 1015.59 1015.93 1016.08 1016.84 1018.13 1019.01 1019.48 1019.26 1018.90 1018.60 1018.17 1017.94 1018.33 1018.76 1019.13 1019.18 1018.26 1016.84 1015.42 1014.45 1014.72 1014.83 1014.64 1014.45
1017.15 1016.87 1016.61 1016.37 1016.15 1015.96 1015.72 1015.46 1015.02 1014.75 1014.23 1014.00 1014.00 1013.61 1013.59 1014.33 1015.14 1014.68 1014.26 1014.22 1014.16 1014.18 1014.80 1015.83 1016.42 1016.87 1017.36 1018.60 1019.54 1019.78 1019.89 1019.77 1019.51 1019.10 1018.41 1018.76 1018.39 1018.38 1018.74 1018.04 1016.79 1015.97 1015.49 1015.05 1014.88 1014.87 1015.33
Wind_Speed
11 12 13 15 16 16 16 16 15 15 15 15 14 13 12 12 11 10 10 9 8 9 10 9 7 7 1 2 9 3 13 14 7 6 8 6 6 5 5 4 5 3 3 6 5 12 9
14 12 12 12 15 16 16 15 15 16 15 16 15 14 13 12 11 11 10 10 8 7 7 7 3 6 2 2 3 3 12 11 6 5 6 5 8 6 2 3 5 2 4 6 6 10 5
16 15 14 12 12 15 16 16 15 15 16 16 16 14 13 12 11 9 10 10 9 8 4 4 4 1 2 10 3 2 7 5 7 5 6 2 3 2 0 2 1 3 6 6 4 6 6
15 16 15 15 13 13 16 16 15 16 16 16 15 15 13 12 10 10 10 10 10 7 2 2 3 1 8 3 2 4 2 5 6 4 3 6 4 2 1 3 4 4 3 5 2 4 7
14 15 16 16 14 12 15 16 15 16 16 16 15 15 14 11 11 10 10 11 8 4 5 7 3 1 9 3 5 6 4 6 6 2 4 3 4 1 3 4 4 6 2 2 2 3 7
14 15 15 17 15 14 14 16 15 15 16 15 15 14 12 11 9 10 13 4 3 7 5 4 4 2 5 3 6 6 4 8 5 6 2 3 4 3 4 4 5 4 2 1 3 5 2
13 15 15 15 16 14 14 17 16 15 15 16 15 15 13 12 9 7 5 4 3 1 2 8 4 3 4 4 2 4 6 3 5 4 6 2 5 6 6 5 5 3 2 1 2 6 4
15 15 15 16 16 15 15 16 16 15 15 16 15 15 13 11 9 4 1 2 4 2 7 9 4 6 6 3 3 5 7 5 4 5 6 5 4 7 7 4 4 2 1 2 2 2 4
16 16 16 16 15 16 15 14 17 15 15 14 13 13 11 11 6 1 3 6 0 4 1 6 5 4 4 7 5 6 8 5 4 3 4 6 2 9 6 4 4 2 5 4 3 7 6
17 16 17 17 17 16 15 16 17 16 15 14 13 12 12 12 1 3 5 4 1 4 5 4 3 5 4 4 3 4 7 6 2 6 6 3 2 4 4 4 6 3 6 6 10 4 3
18 17 18 18 17 16 15 16 16 17 17 16 13 12 11 5 3 3 2 2 2 4 5 2 2 1 0 6 7 1 3 5 6 4 6 5 2 2 2 6 8 5 3 8 6 5 5
17 16 18 18 18 17 16 17 17 18 19 19 15 11 11 1 2 7 5 3 3 7 3 4 1 3 4 2 2 4 4 5 4 4 3 5 2 5 8 5 10 9 10 9 6 4 1
17 18 17 19 18 17 18 18 18 19 20 21 19 10 4 1 4 0 4 4 6 4 3 5 3 3 3 1 2 3 5 4 5 5 2 4 4 4 5 4 2 5 6 4 3 1 6
17 17 17 18 18 17 20 19 19 19 21 22 23 15 7 5 4 4 3 5 3 2 3 4 3 4 5 6 4 4 5 3 2 5 3 6 4 6 4 8 10 8 9 7 6 5 3
18 19 19 18 18 18 19 19 19 20 21 22 20 0 2 5 9 2 6 5 5 4 3 4 3 6 6 5 3 4 3 6 3 5 5 4 5 5 5 4 8 6 4 6 8 3 4
20 20 18 17 18 18 19 19 19 20 21 22 3 4 4 3 7 3 6 3 3 3 2 1 4 2 3 5 4 5 2 1 3 2 2 5 1 2 6 1 3 6 6 4 3 6 4
19 19 17 17 19 18 19 19 20 21 22 13 3 3 3 3 1 6 3 4 4 4 1 4 2 4 3 2 3 1 1 0 1 3 2 5 3 7 1 4 1 3 1 6 6 4 7
18 19 17 17 18 18 20 19 19 19 21 5 2 4 4 3 5 2 0 4 3 4 2 3 4 3 2 3 3 1 4 3 3 3 1 1 6 1 4 3 3 2 2 4 6 4 2
16 17 17 17 19 18 19 19 18 18 13 2 3 1 3 4 3 2 4 2 4 6 4 2 3 3 2 3 3 1 2 2 4 2 5 4 2 3 9 7 6 6 4 3 2 4 6
16 16 17 17 18 18 19 19 18 18 13 2 2 3 4 4 1 3 3 0 4 5 5 4 4 4 3 5 2 1 2 2 1 3 9 7 3 6 7 5 3 5 7 2 4 4 5
16 17 16 16 18 18 19 19 18 17 10 2 4 0 3 2 3 3 3 0 4 3 4 8 7 6 1 3 5 3 3 3 4 2 4 5 3 2 3 3 2 1 6 8 5 3 5
16 16 14 18 17 18 18 19 19 19 7 3 3 3 3 1 1 2 3 4 4 2 3 3 7 3 6 5 1 3 3 4 2 5 3 3 0 0 1 1 5 4 6 7 5 3 3
15 15 15 14 16 17 16 18 18 19 9 3 2 2 3 5 3 4 1 2 2 2 6 3 1 3 4 2 3 3 2 3 1 2 2 3 5 3 3 4 3 5 5 4 5 1 5
15 14 14 15 15 16 15 17 16 14 8 1 1 2 4 3 4 2 3 4 4 3 6 2 3 3 2 5 0 3 6 5 8 7 3 5 4 3 2 2 2 7 2 8 4 4 6
16 15 14 15 14 15 14 16 15 13 11 2 1 2 3 3 1 6 7 4 3 5 4 3 4 2 3 7 5 6 6 4 5 6 7 4 6 4 4 1 5 7 5 2 5 5 3
16 15 14 12 12 14 14 15 15 14 13 1 1 1 3 6 4 3 3 4 3 3 5 3 4 3 7 5 5 3 4 3 3 4 5 6 7 6 2 3 5 4 3 3 5 7 4
14 14 12 12 11 12 12 14 15 14 13 2 2 1 4 6 3 2 3 3 3 3 1 4 6 7 4 3 4 2 3 2 1 3 1 5 5 4 2 2 6 4 8 5 5 7 3
14 13 11 10 10 10 10 12 14 14 13 4 1 2 3 4 4 4 3 4 2 3 2 4 4 5 4 5 3 2 2 2 3 2 2 4 5 2 3 2 3 5 6 1 6 2 4
13 12 10 9 8 9 9 10 11 12 13 6 2 2 2 5 4 1 2 1 2 4 6 2 5 3 5 5 1 3 0 1 3 3 2 0 6 5 7 7 4 5 4 4 2 2 1
Wind_Direction
350 355 358 355 351 351 348 343 338 336 334 332 330 326 319 316 311 305 302 300 308 310 311 307 308 294 305 21 255 303 177 166 134 124 142 132 128 147 177 195 163 228 223 171 145 175 178
349 347 343 355 353 351 349 342 338 335 331 333 334 329 326 321 317 311 306 305 302 304 306 301 290 296 191 304 300 104 130 123 143 123 154 150 166 183 183 227 171 217 147 101 115 146 133
350 349 348 346 353 351 350 345 339 331 330 334 335 333 330 326 321 315 311 308 302 301 299 283 255 234 267 231 12 75 110 112 140 143 143 207 154 125 158 316 287 86 91 98 90 117 98
352 350 347 347 344 354 347 347 343 335 331 331 333 334 332 328 325 320 315 309 299 288 245 185 235 115 252 218 59 125 107 81 101 14 108 206 111 95 146 310 35 76 62 139 185 134 172
356 353 347 347 341 343 347 345 340 339 335 336 336 334 333 332 326 321 316 308 295 265 194 153 107 114 273 301 132 189 172 140 104 53 309 150 106 119 10 88 41 20 172 84 152 236 153
356 356 353 346 342 338 344 346 340 339 337 332 334 337 333 328 330 326 321 246 130 95 115 180 256 341 268 220 152 137 151 142 140 124 12 117 63 81 35 75 186 180 109 99 148 190 120
348 351 352 343 339 337 337 345 341 337 334 331 328 333 333 334 329 331 350 101 43 333 212 206 187 268 296 295 168 110 148 140 107 122 143 204 99 180 180 191 139 121 89 270 26 163 100
336 333 342 346 340 337 338 344 339 331 331 328 326 333 333 332 332 312 302 173 205 185 311 231 248 267 259 258 120 101 120 140 146 140 124 58 180 211 159 155 131 136 101 97 100 69 96
334 334 333 334 335 337 336 337 333 329 326 324 321 316 313 327 313 150 213 231 246 86 161 293 189 202 222 150 169 167 125 149 125 105 139 142 253 150 131 141 136 190 167 172 146 105 57
336 332 334 334 338 336 334 336 329 326 321 318 320 312 316 334 179 175 248 240 202 140 58 292 286 265 139 186 55 150 170 142 79 153 142 161 203 138 122 157 141 206 194 154 143 112 166
342 337 343 338 335 335 333 330 327 321 320 318 317 316 323 322 292 202 237 342 112 72 62 314 217 58 324 131 151 222 196 64 136 133 97 244 153 138 131 205 166 212 151 159 159 96 112
341 345 343 339 336 333 332 329 326 324 322 318 320 315 321 152 239 244 301 331 74 41 31 354 110 127 107 22 51 118 113 63 127 108 44 223 240 159 205 197 174 161 81 54 59 89 6
347 347 342 341 336 332 337 331 329 328 325 319 316 310 268 277 226 241 294 54 38 101 318 352 9 18 108 42 103 111 137 108 139 108 260 305 259 246 150 118 87 77 81 46 45 53 212
347 345 345 341 336 333 338 333 331 330 325 323 322 314 213 220 277 249 46 53 78 279 290 329 36 59 85 357 45 23 79 85 90 89 109 162 307 186 177 177 178 188 157 151 160 179 216
347 349 349 341 334 333 337 335 333 329 327 330 321 339 201 254 203 3 75 67 197 210 280 320 91 67 9 349 106 76 54 152 150 166 160 143 280 300 199 189 143 185 193 187 102 36 94
348 349 346 337 335 331 336 335 332 330 331 337 347 340 281 97 156 87 74 226 231 213 277 357 90 64 118 344 61 50 21 247 161 216 158 192 332 275 297 63 48 157 167 91 19 133 196
348 348 340 339 335 331 336 336 335 332 334 335 45 45 303 97 116 50 124 228 259 249 240 42 86 66 58 99 79 97 216 49 268 8 279 129 100 289 13 36 355 346 352 51 111 113 153
350 348 341 337 335 333 336 337 334 332 336 47 72 65 329 38 55 0 155 211 314 28 4 58 91 98 72 38 74 132 177 189 206 161 30 338 129 317 250 309 245 320 104 122 134 213 107
343 345 344 339 335 335 337 336 334 334 347 335 78 195 330 66 128 282 287 321 71 31 21 48 73 55 73 88 42 359 214 262 231 132 161 190 13 38 347 356 7 44 320 126 126 90 190
342 346 347 338 334 335 336 337 336 337 350 121 83 69 342 55 112 153 150 30 97 19 65 47 49 81 87 49 52 244 342 46 282 65 70 73 95 147 182 203 196 329 333 341 116 113 168
338 344 344 340 336 333 338 339 338 343 357 45 24 106 184 335 355 42 70 351 87 22 38 29 27 28 101 65 359 344 342 344 42 28 58 89 119 140 165 219 233 165 323 327 199 181 155
336 337 338 343 334 333 339 340 342 349 11 58 92 104 1 114 298 139 335 10 116 141 52 0 100 40 55 94 190 311 19 17 296 16 70 28 106 97 219 306 270 111 3 25 54 82 40
333 333 334 336 333 333 339 341 346 358 355 53 324 2 98 311 7 75 303 112 105 75 31 58 56 102 51 344 214 241 184 142 84 12 99 72 115 44 260 326 323 7 1 355 279 214 142
327 329 330 333 333 332 338 339 347 359 36 176 237 106 77 344 64 28 50 76 65 23 125 28 24 64 342 324 14 57 40 66 56 25 356 124 83 90 215 341 137 234 125 99 104 6 339
323 325 326 330 329 329 337 334 342 350 359 172 254 104 103 76 311 27 35 63 62 40 59 74 3 332 327 41 47 29 349 19 29 36 20 44 117 87 125 201 288 318 30 33 107 290 279
320 317 320 323 323 324 332 332 339 349 352 341 271 149 95 112 342 273 61 24 74 13 2 2 353 352 59 69 58 107 207 239 316 6 81 57 64 106 96 125 203 259 304 288 153 317 161
311 313 312 315 313 319 326 330 337 347 349 343 314 72 92 100 332 49 79 113 114 90 124 315 341 9 49 59 71 140 256 211 131 147 343 16 12 121 122 207 290 286 303 305 114 240 148
307 309 305 303 305 311 319 329 335 347 345 2 271 334 114 97 325 6 31 90 68 73 111 276 38 354 40 65 112 205 159 248 66 255 151 161 127 169 84 93 267 357 320 210 225 201 150
299 298 300 294 296 305 313 324 333 344 343 343 33 2 345 91 180 306 84 38 343 191 138 360 167 182 182 92 97 122 201 43 156 231 338 95 178 184 163 211 251 282 245 286 271 39 44